Probability
0 0 0 0 0 0 0 0 0 0 0 0 0 0 0 0 0 0 0 0 0 3 3 6 6 6 3 3 3 6 6 6 6 10 6 3 0 0 6 3 3 0 3
0 0 0 0 0 0 0 0 0 0 0 0 0 0 0 0 0 0 0 0 0 0 0 3 3 6 10 6 6 6 6 6 6 6 6 6 0 3 0 3 3 0 0
0 0 0 0 0 0 0 0 0 0 0 0 0 0 0 0 0 0 0 0 0 0 0 0 3 3 6 6 3 3 6 6 6 6 6 6 3 3 0 0 0 0 0
0 0 0 0 0 0 0 0 0 0 0 0 0 0 0 0 0 0 0 0 0 0 0 0 0 3 6 3 3 6 3 6 6 6 6 3 3 0 0 0 0 0 0
0 0 0 0 0 0 0 0 0 0 0 0 0 0 0 0 0 0 0 0 0 0 0 0 0 0 3 6 3 0 3 6 6 3 6 0 0 0 0 0 0 0 0
0 0 0 0 0 0 0 0 0 0 0 0 0 0 0 0 0 0 0 0 0 0 0 0 0 0 0 3 3 0 0 6 6 3 6 0 0 0 0 0 0 0 0
0 0 0 0 0 0 0 0 0 0 0 0 0 0 0 0 0 0 0 0 0 0 0 0 0 0 0 0 0 0 0 3 6 0 3 0 0 0 0 0 0 0 0
0 0 0 0 0 0 0 0 0 0 0 0 0 0 0 0 0 0 0 0 0 0 0 0 0 0 0 0 0 0 0 0 3 0 0 0 0 0 0 0 0 0 0
0 0 0 0 0 0 0 0 0 0 0 0 0 0 0 0 0 0 0 0 0 0 0 0 0 0 0 0 0 0 0 0 0 3 0 0 0 0 0 0 0 0 0
0 0 0 0 0 0 0 0 0 0 0 0 0 0 0 0 0 0 0 0 0 0 0 0 0 0 0 0 0 0 0 0 0 0 0 0 0 0 0 0 0 0 0
0 0 0 0 0 0 0 0 0 0 0 0 0 0 0 0 0 0 0 0 0 0 0 0 0 0 0 0 0 0 0 0 0 0 0 0 0 0 0 0 0 0 0
0 0 0 0 0 0 0 0 0 0 0 0 0 0 0 0 0 0 0 0 0 0 0 0 0 0 0 0 0 0 0 0 0 0 0 0 0 0 0 0 0 0 0
0 0 0 0 0 0 0 0 0 0 0 0 0 0 0 0 0 0 0 0 0 0 0 0 0 0 0 0 0 0 0 0 0 0 0 0 0 0 0 0 0 0 0
0 0 0 0 0 0 0 0 0 0 0 0 0 0 0 0 0 0 0 0 0 0 0 0 0 0 0 0 0 0 0 0 0 0 0 0 0 0 0 0 0 0 0
0 0 0 0 0 0 0 0 0 0 0 0 0 0 0 0 0 0 0 0 0 0 0 0 0 0 0 0 0 0 0 0 0 0 0 0 0 0 0 0 0 0 0
0 0 0 0 0 0 0 0 0 0 0 0 0 0 0 0 0 0 0 0 0 0 0 0 0 0 0 0 0 0 0 0 0 0 0 0 0 0 0 0 0 0 0
0 0 0 0 0 0 0 0 0 0 0 0 0 0 0 0 0 0 0 0 0 0 0 0 0 0 0 0 0 0 0 0 0 0 0 0 0 0 0 0 0 0 0
0 0 0 0 0 0 0 0 0 0 0 0 0 0 0 0 0 0 0 0 0 0 0 0 0 0 0 0 0 0 0 0 0 0 0 0 0 0 0 0 0 0 0
0 0 0 0 0 0 0 0 0 0 0 0 0 0 0 0 0 0 0 0 0 0 0 0 0 0 0 0 0 0 0 0 0 0 0 0 0 0 0 0 0 0 0
0 0 0 0 0 0 0 0 0 0 0 0 0 0 0 0 0 0 0 0 0 0 0 0 0 0 0 0 0 0 0 0 0 0 0 0 0 0 0 0 0 0 0
0 0 0 0 0 0 0 0 0 0 0 0 0 0 0 0 0 0 0 0 0 0 0 0 0 0 0 0 0 0 0 0 0 0 0 0 0 0 0 0 0 0 0
0 0 0 0 0 0 0 0 0 0 0 0 0 0 0 0 0 0 0 0 0 0 0 0 0 0 0 0 0 0 0 0 0 0 0 0 0 0 0 0 0 0 0
0 0 0 0 0 0 0 0 0 0 0 0 0 0 0 0 0 0 0 0 0 0 0 0 0 0 0 0 0 0 0 0 0 0 0 0 0 0 0 0 0 0 0
0 0 0 0 0 0 0 0 0 0 0 0 0 0 0 0 0 0 0 0 0 0 0 0 0 0 0 0 0 0 0 0 0 0 0 0 0 0 0 0 0 0 0
0 0 0 0 0 0 0 0 0 0 0 0 0 0 0 0 0 0 0 0 0 0 0 0 0 0 0 0 0 0 0 0 0 0 0 0 0 0 0 0 0 0 0
0 0 0 0 0 0 0 0 0 0 0 0 0 0 0 0 0 0 0 0 0 0 0 0 0 0 0 0 0 0 0 0 0 0 0 0 0 0 0 0 0 0 0
Height
5780 5780 5780 5779 5779 5779 5778 5778 5778 5778 5779 5779 5779 5779 5780 5780 5781 5782 5783 5785 5786 5787 5789 5790 5791 5793 5794 5796 5797 5798 5799 5800 5802 5803 5804 5805 5806 5808 5809 5810 5811 5811 5812
5772 5771 5771 5771 5771 5770 5770 5770 5770 5769 5769 5769 5770 5770 5770 5771 5771 5772 5774 5775 5776 5778 5780 5781 5783 5785 5786 5788 5790 5791 5792 5794 5795 5796 5798 5799 5800 5802 5803 5804 5805 5806 5807
5762 5762 5762 5761 5761 5761 5760 5760 5760 5760 5760 5760 5760 5759 5760 5760 5760 5761 5763 5764 5766 5767 5769 5771 5773 5775 5777 5779 5781 5783 5785 5786 5788 5790 5791 5793 5794 5795 5797 5798 5799 5800 5802
5752 5752 5751 5751 5751 5750 5750 5749 5749 5749 5749 5749 5749 5749 5748 5749 5749 5750 5751 5752 5754 5756 5758 5760 5763 5765 5768 5770 5772 5774 5777 5778 5780 5782 5784 5786 5787 5789 5790 5792 5793 5794 5796
5741 5741 5740 5740 5739 5739 5738 5738 5737 5737 5737 5737 5737 5737 5737 5737 5737 5738 5739 5740 5742 5744 5746 5748 5751 5754 5757 5760 5763 5765 5768 5770 5772 5774 5776 5778 5780 5781 5783 5785 5786 5788 5789
5729 5728 5728 5727 5727 5726 5726 5725 5725 5724 5724 5724 5724 5724 5725 5725 5725 5726 5727 5728 5730 5732 5734 5736 5739 5742 5746 5749 5752 5755 5758 5761 5763 5765 5767 5770 5772 5774 5776 5777 5779 5781 5782
5716 5715 5715 5714 5714 5713 5713 5712 5712 5711 5711 5711 5711 5711 5712 5712 5713 5713 5714 5716 5718 5719 5722 5724 5727 5731 5734 5738 5741 5745 5748 5751 5753 5756 5758 5761 5763 5765 5767 5769 5772 5773 5775
5702 5702 5701 5700 5700 5699 5699 5698 5698 5697 5697 5697 5697 5697 5699 5700 5700 5701 5701 5703 5704 5707 5709 5712 5715 5718 5722 5726 5730 5734 5737 5740 5743 5746 5748 5751 5753 5756 5758 5761 5763 5765 5767
5688 5687 5686 5686 5685 5685 5684 5684 5683 5683 5683 5682 5682 5683 5684 5686 5687 5688 5689 5690 5691 5694 5696 5699 5702 5705 5709 5714 5718 5722 5725 5729 5732 5735 5738 5740 5743 5747 5749 5752 5754 5756 5759
5673 5672 5671 5670 5670 5669 5669 5669 5668 5667 5667 5668 5667 5668 5669 5670 5671 5674 5676 5677 5678 5680 5682 5685 5688 5692 5696 5700 5705 5709 5713 5717 5721 5724 5727 5730 5733 5736 5739 5742 5745 5747 5750
5658 5657 5655 5654 5654 5653 5653 5652 5652 5651 5651 5652 5652 5653 5654 5655 5655 5658 5661 5663 5664 5666 5668 5671 5674 5678 5682 5686 5691 5696 5700 5704 5708 5712 5715 5719 5722 5726 5729 5732 5735 5737 5739
5644 5642 5640 5639 5638 5637 5636 5635 5635 5635 5635 5636 5636 5637 5639 5640 5641 5643 5645 5648 5650 5653 5654 5656 5660 5663 5667 5672 5677 5682 5686 5690 5695 5699 5703 5706 5710 5714 5717 5720 5723 5726 5729
5630 5628 5626 5624 5623 5621 5620 5619 5618 5618 5619 5620 5621 5622 5623 5625 5626 5628 5630 5632 5635 5638 5639 5641 5645 5648 5652 5657 5662 5667 5672 5677 5681 5685 5690 5694 5698 5702 5705 5708 5711 5714 5717
5616 5614 5612 5610 5608 5606 5604 5602 5601 5602 5602 5604 5605 5607 5608 5610 5611 5613 5615 5617 5619 5622 5625 5628 5630 5633 5637 5642 5646 5651 5657 5662 5666 5671 5676 5681 5685 5688 5692 5695 5698 5702 5705
5603 5600 5598 5595 5593 5590 5588 5587 5586 5585 5586 5587 5589 5590 5592 5594 5595 5597 5599 5601 5603 5606 5610 5613 5616 5619 5623 5627 5632 5637 5642 5647 5651 5656 5661 5666 5671 5675 5678 5682 5686 5689 5693
5589 5586 5583 5581 5578 5575 5573 5572 5571 5570 5571 5572 5573 5574 5576 5578 5580 5582 5584 5585 5587 5590 5594 5599 5601 5605 5608 5613 5617 5622 5627 5632 5637 5641 5646 5652 5656 5660 5664 5669 5672 5676 5680
5575 5572 5569 5566 5564 5561 5559 5557 5556 5556 5556 5556 5557 5559 5560 5562 5564 5566 5568 5570 5572 5574 5578 5583 5586 5590 5594 5598 5602 5607 5612 5617 5622 5627 5632 5637 5641 5646 5650 5655 5659 5663 5667
5561 5558 5555 5552 5549 5546 5544 5543 5542 5541 5541 5541 5542 5543 5545 5546 5548 5550 5552 5554 5557 5559 5563 5567 5571 5575 5580 5584 5588 5592 5598 5602 5608 5613 5618 5622 5627 5631 5636 5640 5645 5650 5654
5547 5544 5541 5538 5535 5532 5530 5529 5528 5527 5527 5527 5527 5528 5529 5530 5533 5534 5536 5539 5541 5544 5548 5552 5557 5560 5565 5569 5573 5578 5583 5588 5593 5598 5603 5608 5612 5617 5621 5626 5631 5636 5641
5533 5530 5527 5523 5521 5518 5517 5515 5514 5513 5512 5512 5513 5513 5514 5515 5517 5519 5521 5524 5526 5529 5533 5537 5542 5546 5550 5554 5558 5564 5569 5574 5579 5584 5589 5593 5598 5602 5607 5612 5618 5622 5627
5519 5515 5512 5509 5507 5505 5503 5501 5500 5499 5499 5498 5498 5499 5499 5501 5502 5504 5507 5510 5512 5516 5519 5523 5528 5532 5535 5539 5544 5549 5554 5559 5564 5569 5574 5579 5584 5589 5593 5597 5602 5607 5612
5504 5501 5498 5495 5493 5491 5489 5487 5486 5485 5485 5485 5485 5485 5486 5487 5488 5491 5493 5496 5499 5502 5506 5510 5514 5518 5522 5526 5530 5534 5539 5544 5551 5556 5560 5564 5568 5573 5578 5583 5588 5593 5598
5489 5486 5483 5481 5479 5477 5474 5473 5471 5471 5471 5471 5471 5472 5473 5474 5475 5478 5480 5483 5486 5489 5493 5497 5501 5505 5509 5513 5517 5522 5526 5530 5536 5541 5544 5550 5554 5559 5564 5568 5573 5578 5583
5475 5472 5469 5466 5464 5462 5460 5459 5457 5457 5457 5457 5458 5459 5460 5461 5463 5465 5468 5470 5474 5477 5481 5484 5489 5493 5496 5499 5503 5508 5512 5517 5522 5526 5530 5536 5541 5545 5549 5554 5559 5563 5568
5462 5459 5455 5453 5451 5448 5446 5445 5444 5443 5444 5444 5445 5446 5447 5449 5451 5453 5456 5459 5462 5465 5468 5471 5476 5479 5483 5487 5491 5495 5499 5503 5509 5513 5517 5522 5527 5531 5535 5540 5545 5549 5554
5449 5446 5443 5440 5437 5435 5433 5432 5431 5431 5432 5432 5433 5434 5436 5437 5438 5440 5443 5447 5450 5453 5456 5459 5463 5467 5470 5474 5478 5482 5486 5491 5496 5501 5505 5509 5513 5517 5522 5527 5531 5535 5539
Wind_Speed
32 32 32 32 32 32 32 33 33 34 34 35 35 35 35 35 36 36 36 36 36 36 36 36 36 35 34 33 32 31 30 30 30 28 28 28 27 26 26 25 24 24 23
35 35 35 35 35 36 36 36 35 35 36 37 37 38 38 38 38 37 38 38 38 38 39 38 38 38 37 36 35 34 33 31 31 31 30 29 29 29 28 27 26 26 25
38 38 38 38 38 38 39 39 38 38 38 38 39 40 40 40 41 40 40 40 41 41 41 41 41 41 40 39 38 37 35 34 33 32 32 31 31 30 29 29 28 27 27
41 41 41 41 41 41 41 42 41 41 41 41 41 42 42 42 42 42 42 42 41 42 42 42 42 42 42 41 40 39 38 36 36 35 34 34 33 31 30 30 29 29 28
43 43 44 44 44 44 44 44 43 43 43 43 43 44 44 44 44 44 43 43 43 43 43 43 43 43 43 43 42 41 40 39 38 38 36 35 35 34 32 31 30 30 30
45 46 46 46 46 46 46 46 46 45 45 45 45 46 45 45 45 45 45 45 44 45 45 45 45 44 44 44 44 43 42 41 40 40 39 38 38 36 35 33 32 31 31
47 48 48 49 49 49 48 48 48 48 48 48 47 47 47 47 46 46 47 47 46 46 47 47 47 47 46 46 46 45 44 43 43 42 41 40 39 38 37 36 34 33 33
49 50 50 50 50 50 50 50 50 50 51 51 50 49 48 48 49 48 48 49 49 48 49 48 48 48 47 47 46 47 46 46 45 45 44 43 42 40 39 38 37 36 35
50 50 51 51 51 51 51 51 51 52 52 52 53 53 52 50 50 50 50 50 50 50 50 49 49 50 50 49 49 48 48 48 48 46 45 45 44 43 42 40 40 39 38
50 51 52 52 53 53 53 53 52 52 53 53 53 54 54 53 52 51 51 51 51 51 51 51 51 52 52 52 51 50 50 50 49 49 48 46 45 45 44 42 42 41 41
50 51 52 53 53 54 55 55 54 54 54 54 54 54 54 53 53 53 52 51 52 52 53 53 53 53 54 54 54 53 53 52 51 50 50 49 47 46 45 45 43 43 42
50 50 51 52 53 54 56 57 57 55 54 53 53 53 54 54 53 53 52 52 52 52 53 54 55 54 54 56 56 55 55 54 53 53 51 50 49 49 48 47 46 45 44
49 50 51 52 53 54 55 56 57 57 55 54 53 53 53 54 54 53 53 53 53 53 53 53 54 54 54 55 56 56 56 55 55 55 53 51 50 50 49 49 48 46 45
49 50 51 52 53 53 54 55 55 55 56 55 55 55 54 54 55 55 54 54 54 54 53 53 54 55 54 55 55 57 57 57 56 56 55 53 52 51 50 49 49 48 47
49 50 51 52 52 53 53 54 54 54 55 56 56 56 55 55 56 56 55 54 55 55 55 53 54 55 55 56 56 57 57 57 57 56 56 55 55 53 52 51 50 49 48
49 49 50 52 52 53 53 53 53 53 54 55 55 55 55 56 55 56 55 55 55 56 55 54 54 54 54 55 56 57 56 56 57 57 56 56 55 54 53 53 52 52 51
50 50 50 51 51 52 52 52 52 52 53 54 55 54 54 55 55 55 56 56 55 55 55 54 54 54 54 54 55 56 56 55 56 55 55 56 55 55 55 54 53 53 52
50 50 50 50 51 51 51 51 51 51 51 52 52 54 54 54 54 54 55 55 54 54 55 53 53 53 54 55 55 56 56 54 55 55 55 56 56 56 56 55 54 53 53
50 50 51 50 50 50 50 50 50 50 50 51 51 51 52 53 52 53 53 53 53 53 54 54 53 52 53 55 55 55 55 54 54 54 55 55 57 57 56 56 56 55 55
50 50 50 49 49 49 49 49 49 49 49 50 50 50 51 52 51 51 51 52 52 52 52 52 52 52 53 53 54 54 55 55 54 55 55 55 56 57 56 56 55 56 55
51 51 49 48 48 48 48 48 47 47 48 48 48 48 49 50 50 49 49 50 50 51 51 51 51 51 51 52 51 53 54 54 55 55 55 55 55 56 57 57 56 55 56
50 50 49 48 48 47 47 47 47 47 46 46 46 47 46 47 47 47 47 48 49 49 49 49 49 49 49 51 51 52 53 54 53 54 54 53 54 54 56 56 56 56 56
49 49 49 48 47 47 47 47 46 46 45 45 45 44 44 44 44 44 45 46 46 47 48 47 48 49 50 50 50 50 51 52 52 52 53 52 53 53 53 54 55 56 56
47 47 47 46 46 45 45 45 44 44 43 42 42 41 41 42 43 43 43 43 45 46 46 46 47 48 48 49 50 51 50 50 51 51 51 52 52 52 52 53 54 55 56
45 45 45 45 45 44 43 43 42 42 41 40 40 40 40 40 42 43 42 42 43 44 45 46 47 47 48 48 48 49 49 49 49 50 50 50 50 51 52 52 53 54 55
43 43 43 43 42 42 41 40 40 39 39 39 39 39 39 39 39 41 42 42 42 43 44 46 46 46 46 47 47 47 48 48 48 48 48 49 49 51 51 52 52 53 55
Wind_Direction
272 272 272 271 271 270 269 268 268 268 266 266 264 262 260 259 258 256 256 256 256 254 253 252 252 253 253 253 252 252 252 251 249 249 249 251 251 249 249 250 251 252 252
272 272 271 271 270 269 268 267 267 267 266 265 264 263 261 260 259 258 258 257 255 255 254 253 252 252 252 252 252 251 250 250 249 248 248 249 250 250 250 250 250 251 252
272 272 272 271 270 269 268 268 267 266 265 265 265 264 263 262 261 260 260 259 257 256 255 254 253 252 252 251 251 251 250 249 249 249 248 248 249 249 250 250 249 250 251
273 272 271 270 269 269 268 268 267 266 266 266 266 266 265 263 262 262 261 259 258 256 255 254 252 252 251 250 250 250 250 249 248 247 248 248 247 247 248 249 250 250 250
273 272 271 270 270 269 269 268 267 266 266 266 266 266 265 264 262 261 260 259 258 256 254 252 252 251 250 249 249 249 248 249 248 247 247 247 247 248 248 249 250 250 249
273 272 271 270 270 269 269 269 268 266 265 265 265 264 264 263 263 261 260 259 258 256 254 252 251 250 249 248 248 247 247 247 248 247 246 247 248 248 247 248 250 250 250
272 272 272 270 269 269 269 269 269 267 266 264 264 264 263 262 262 262 261 260 258 256 253 252 250 249 248 247 246 246 246 246 247 247 247 247 247 247 248 248 249 250 251
273 272 272 272 270 269 269 269 269 268 267 265 264 263 262 261 260 261 260 259 258 256 254 251 249 247 246 246 245 246 245 246 247 247 247 247 247 248 248 249 251 252 252
275 273 273 272 271 270 269 269 269 269 267 266 264 263 262 260 260 259 259 259 257 256 254 251 249 247 246 245 245 245 246 245 245 246 246 246 247 248 250 250 251 253 253
275 274 273 272 272 270 269 269 269 269 268 266 264 263 262 261 260 259 258 258 256 255 254 253 250 248 246 245 244 244 244 245 245 246 246 246 247 248 249 250 252 253 253
276 275 274 273 272 271 270 268 268 267 267 266 264 262 262 261 261 259 258 257 256 255 254 253 251 248 247 246 245 244 243 244 244 245 246 246 247 247 249 250 251 252 253
278 277 275 274 273 272 271 270 268 267 266 265 264 262 262 261 260 260 258 257 255 255 255 253 250 248 247 246 245 244 243 243 244 244 245 246 246 246 248 250 250 252 252
280 279 278 276 275 273 272 271 269 267 265 264 263 262 262 261 259 259 258 257 256 255 255 253 250 249 248 247 245 244 243 243 244 244 244 245 246 246 247 249 249 250 250
281 280 279 278 277 275 273 273 270 267 264 263 263 262 261 260 260 259 259 258 257 255 254 252 250 249 250 247 246 244 243 244 244 244 244 244 245 246 247 248 248 248 248
282 281 280 279 278 277 274 273 271 268 265 263 263 263 262 261 261 260 259 258 257 255 253 251 249 249 250 247 246 245 245 244 243 243 243 244 245 246 246 246 247 247 247
282 282 282 281 280 278 275 274 271 269 266 264 263 263 262 261 260 259 259 258 257 255 254 251 249 249 248 247 246 245 245 245 244 243 243 243 244 245 245 245 246 247 247
282 283 282 282 280 279 276 274 272 270 267 265 263 262 262 261 260 259 259 257 256 256 253 250 249 248 247 246 246 245 244 244 243 243 243 244 245 245 244 245 245 245 246
283 283 283 283 281 279 277 275 272 270 268 267 265 263 262 262 261 259 258 256 256 254 251 248 248 247 247 246 246 245 244 244 243 244 244 245 245 245 244 244 243 244 245
283 284 284 283 281 279 277 276 273 271 269 267 266 264 263 262 261 259 257 255 254 253 251 249 248 248 247 247 246 246 245 244 244 244 245 245 245 245 244 243 243 244 245
284 284 284 283 282 280 278 276 273 271 270 269 267 265 264 261 260 259 256 253 253 251 249 249 248 247 246 246 246 246 245 245 245 245 246 246 245 244 243 243 244 244 244
284 284 283 282 281 280 277 276 274 273 271 270 268 265 263 261 259 257 255 252 251 250 248 247 246 246 245 245 246 246 245 245 246 246 246 246 246 245 244 244 245 244 244
284 284 283 282 280 279 277 275 273 273 271 268 267 266 264 261 258 256 254 251 250 248 247 246 246 246 246 245 245 245 245 245 245 245 245 244 244 244 244 244 244 244 244
284 284 283 282 281 279 277 275 273 272 270 267 265 264 262 260 256 254 253 251 249 247 247 246 246 245 245 244 244 245 245 245 245 245 245 244 244 244 244 244 244 244 243
285 285 284 283 281 278 277 275 273 271 269 266 263 262 261 258 254 252 251 249 248 247 246 246 245 244 244 244 244 244 245 246 245 244 244 244 244 244 244 245 244 244 243
286 286 285 283 281 279 277 274 272 271 268 265 262 261 260 257 254 251 250 249 247 247 247 245 244 244 245 245 245 244 244 245 244 244 243 243 244 244 244 244 245 245 243
287 286 285 283 281 279 276 273 272 270 267 264 261 260 259 257 254 250 249 248 247 246 246 245 244 244 244 244 244 244 243 244 243 243 243 244 245 244 244 243 244 245 245